Kharkiv, Ukraine

10:18 PM EET on November 20, 2019 (GMT +0200)
Osnova

Weather History for UKHH - October, 2019

Change the Weather History Date:

Monday, October 21, 2019

  Actual Average Record
Temperature  
Mean Temperature 51 °F -  
Max Temperature 62 °F - - ()
Min Temperature 40 °F - - ()
Degree Days  
Heating Degree Days 14    
Growing Degree Days 1 (Base 50)    
Moisture  
Dew Point 48 °F    
Average Humidity 89    
Maximum Humidity 100    
Minimum Humidity 61    
Precipitation  
Precipitation 0.00 in 0.05 in - ()
Sea Level Pressure  
Sea Level Pressure 30.27 in    
Wind  
Wind Speed 4 mph ()    
Max Wind Speed 11 mph    
Max Gust Speed -    
Visibility 2.2 miles    
Events Fog    
T = Trace of Precipitation, MM = Missing Value Source: Averaged Metar Reports

Daily Weather History Graph

Daily Weather History Graph

Search for Another Location

Airport or City:

Astronomy

Oct. 21, 2019 Rise Set
Actual Time 7:05 AM EEST 5:32 PM EEST
Civil Twilight 6:32 AM EEST 6:05 PM EEST
Nautical Twilight 5:54 AM EEST 6:43 PM EEST
Astronomical Twilight 5:17 AM EEST 7:20 PM EEST
Moon 11:03 PM EEST (10/21) 2:29 PM EEST (10/21)
Length of Visible Light 11h 33m
Length of Day
10h 27m
Waning Gibbous, 52% of the Moon is Illuminated
Oct 21
Waning Gibbous
Oct 21
Last Quarter
Oct 28
New
Nov 4
First Quarter
Nov 12
Full

Hourly Weather History & Observations

Time (EEST) Temp. Dew Point Humidity Pressure Visibility Wind Dir Wind Speed Gust Speed Precip Events Conditions
12:00 AM 51 °F 47 °F 81% 30.28 in 4 mi ESE 4.5 mph - -   Mist
12:30 AM 51.8 °F 46.4 °F 82% 30.27 in 4.3 mi ESE 4.5 mph - N/A   Unknown
1:30 AM 50.0 °F 46.4 °F 87% 30.27 in 5.0 mi ESE 4.5 mph - N/A   Unknown
2:00 AM 48.2 °F 44.6 °F 87% 30.27 in 5.6 mi ESE 4.5 mph - N/A   Unknown
2:30 AM 48.2 °F 46.4 °F 93% 30.27 in 3.7 mi Calm Calm - N/A   Unknown
3:00 AM 49 °F 46 °F 85% 30.29 in 4 mi East 2.2 mph - -   Mist
3:00 AM 48.2 °F 44.6 °F 87% 30.27 in 4.3 mi East 2.2 mph - N/A   Unknown
3:30 AM 46.4 °F 44.6 °F 93% 30.27 in 4.3 mi Variable 2.2 mph - N/A   Unknown
4:30 AM 46.4 °F 44.6 °F 93% 30.27 in 3.7 mi Variable 2.2 mph - N/A   Mist
5:00 AM 42.8 °F 41.0 °F 93% 30.27 in - ESE 2.2 mph - N/A   Mist
5:49 AM 44.6 °F 44.6 °F 100% 30.27 in 0.2 mi Variable 2.2 mph - N/A Fog Fog
6:00 AM 44 °F 44 °F 99% 30.30 in 0 mi Calm Calm - - Fog Partial Fog
6:30 AM 42.8 °F 42.8 °F 100% 30.27 in 0.4 mi Calm Calm - N/A Fog Fog
7:00 AM 42.8 °F 41.0 °F 93% 30.27 in - SW 2.2 mph - N/A   Mist
7:30 AM 39.2 °F 39.2 °F 100% 30.27 in 0.9 mi Calm Calm - N/A   Partly Cloudy
8:30 AM 48.2 °F 46.4 °F 93% 30.30 in 1.2 mi Calm Calm - N/A   Mist
8:46 AM 48.2 °F 46.4 °F 93% 30.30 in - Variable 2.2 mph - N/A   Mist
9:00 AM 49 °F 46 °F 87% 30.31 in 2 mi East 2.2 mph - - Fog Light Fog
9:00 AM 48.2 °F 46.4 °F 93% 30.30 in 3.1 mi Calm Calm - N/A   Mist
9:30 AM 50.0 °F 46.4 °F 87% 30.30 in 5.0 mi SE 4.5 mph - N/A   Unknown
10:00 AM 53.6 °F 48.2 °F 82% 30.30 in - SE 4.5 mph - N/A   Clear
10:30 AM 55.4 °F 48.2 °F 77% 30.30 in - SSE 4.5 mph - N/A   Clear
11:30 AM 57.2 °F 50.0 °F 77% 30.30 in - SSE 8.9 mph - N/A   Clear
12:00 PM 61 °F 51 °F 61% 30.30 in 6 mi SSE 8.9 mph - -  
12:30 PM 62.6 °F 51.8 °F 68% 30.30 in - South 6.7 mph - N/A   Clear
1:00 PM 60.8 °F 51.8 °F 72% 30.30 in - SSE 8.9 mph - N/A   Clear
2:00 PM 60.8 °F 51.8 °F 72% 30.27 in - SSE 8.9 mph - N/A   Clear
2:30 PM 59.0 °F 51.8 °F 77% 30.27 in - SSE 11.2 mph - N/A   Clear
3:00 PM 60 °F 53 °F 70% 30.28 in 6 mi ESE 8.9 mph - -   Clear
3:00 PM 59.0 °F 51.8 °F 77% 30.27 in - SE 8.9 mph - N/A   Clear
3:30 PM 59.0 °F 51.8 °F 77% 30.27 in - SE 8.9 mph - N/A   Clear
4:00 PM 59.0 °F 51.8 °F 77% 30.27 in - SSE 8.9 mph - N/A   Clear
4:30 PM 57.2 °F 51.8 °F 82% 30.27 in 4.3 mi South 6.7 mph - N/A   Unknown
5:00 PM 57.2 °F 51.8 °F 82% 30.24 in 4.3 mi South 4.5 mph - N/A   Unknown
5:30 PM 55.4 °F 51.8 °F 88% 30.24 in 3.7 mi South 4.5 mph - N/A   Unknown
6:00 PM 55 °F 51 °F 83% 30.26 in 3 mi Calm Calm - -   Mist
6:00 PM 53.6 °F 50.0 °F 88% 30.24 in 3.1 mi Calm Calm - N/A   Mist
6:30 PM 53.6 °F 51.8 °F 94% 30.24 in - WNW 4.5 mph - N/A   Mist
7:00 PM 53.6 °F 51.8 °F 94% 30.24 in 1.6 mi WNW 2.2 mph - N/A   Mist
7:30 PM 53.6 °F 50.0 °F 88% 30.24 in 0.7 mi Calm Calm - N/A   Mist
8:24 PM 51.8 °F 50.0 °F 94% 30.24 in 0.7 mi SSW 2.2 mph - N/A   Mist
8:30 PM 51.8 °F 50.0 °F 94% 30.24 in 0.7 mi SW 2.2 mph - N/A   Mist
8:38 PM 50.0 °F 50.0 °F 100% 30.24 in 0.4 mi WSW 4.5 mph - N/A   Unknown
9:00 PM 51 °F 51 °F 99% 30.26 in 0 mi South 2.2 mph - - Fog Partial Fog
9:00 PM 50.0 °F 50.0 °F 100% 30.24 in 0.6 mi SSW 2.2 mph - N/A   Unknown
9:07 PM 50.0 °F 50.0 °F 100% 30.24 in 0.4 mi South 2.2 mph - N/A Fog Fog
9:23 PM 50.0 °F 50.0 °F 100% 30.24 in 0.5 mi SSW 4.5 mph - N/A   Unknown
9:30 PM 51.8 °F 51.8 °F 100% 30.24 in 0.2 mi SW 4.5 mph - N/A Fog Fog
10:00 PM 50.0 °F 50.0 °F 100% 30.24 in 0.2 mi SW 4.5 mph - N/A Fog Fog
10:19 PM 48.2 °F 48.2 °F 100% 30.24 in 0.0 mi SW 4.5 mph - N/A Fog Fog
10:30 PM 48.2 °F 48.2 °F 100% 30.24 in 0.0 mi WSW 4.5 mph - N/A Fog Fog
10:52 PM 48.2 °F 48.2 °F 100% 30.24 in 0.1 mi West 6.7 mph - N/A Fog Fog
11:00 PM 48.2 °F 48.2 °F 100% 30.24 in 0.1 mi West 6.7 mph - N/A Fog Fog
11:05 PM 48.2 °F 48.2 °F 100% 30.24 in 0.0 mi WSW 6.7 mph - N/A Fog Fog
11:30 PM 48.2 °F 48.2 °F 100% 30.24 in 0.0 mi West 6.7 mph - N/A Fog Fog